This is the latest recevied weather packets stored in our database for station/object 4S6DRJ-13. If no packets are shown the sender has not sent any weather packets the latest 10 day(s).
| Time | Temp. | Humidity | Pressure | Rain* | Wind** | Luminosity | Snow |
|---|---|---|---|---|---|---|---|
| 1788124371 | 27.78° C | 84% | 1009 hPa | 0 mm | 1.34 m/s, 297° | 0 W/m² | - |
| 1788124310 | 27.78° C | 84% | 1009.2 hPa | 0 mm | 1.79 m/s, 224° | 0 W/m² | - |
| 1788124249 | 27.78° C | 84% | 1009.2 hPa | 0 mm | 0.89 m/s, 220° | 0 W/m² | - |
| 1788124188 | 27.78° C | 84% | 1009.1 hPa | 0 mm | 1.34 m/s, 89° | 0 W/m² | - |
| 1788124127 | 27.78° C | 84% | 1009 hPa | 0 mm | 1.79 m/s, 274° | 0 W/m² | - |
| 1788124066 | 27.78° C | 84% | 1009.1 hPa | 0 mm | 1.34 m/s, 278° | 0 W/m² | - |
| 1788124005 | 27.78° C | 84% | 1009.1 hPa | 0 mm | 0.89 m/s, 304° | 0 W/m² | - |
| 1788123944 | 27.78° C | 84% | 1009.2 hPa | 0 mm | 0.45 m/s, 243° | 0 W/m² | - |
| 1788123883 | 27.78° C | 84% | 1009.1 hPa | 0 mm | 0.45 m/s, 263° | 0 W/m² | - |
| 1788123822 | 27.78° C | 84% | 1009.1 hPa | 0 mm | 0.45 m/s, 212° | 0 W/m² | - |
| 1788123761 | 27.78° C | 84% | 1009.2 hPa | 0 mm | 1.34 m/s, 206° | 0 W/m² | - |
| 1788123700 | 27.78° C | 84% | 1009.2 hPa | 0 mm | 1.79 m/s, 287° | 0 W/m² | - |
| 1788123639 | 27.78° C | 84% | 1009 hPa | 0 mm | 0.89 m/s, 184° | 0 W/m² | - |
| 1788123578 | 27.78° C | 84% | 1009 hPa | 0 mm | 1.34 m/s, 310° | 0 W/m² | - |
| 1788123517 | 27.78° C | 84% | 1009.1 hPa | 0 mm | 0.89 m/s, 219° | 0 W/m² | - |
| 1788123456 | 27.78° C | 84% | 1009.1 hPa | 0 mm | 0.89 m/s, 292° | 0 W/m² | - |
| 1788123395 | 27.78° C | 84% | 1009.3 hPa | 0 mm | 0.89 m/s, 214° | 0 W/m² | - |
| 1788123334 | 27.78° C | 84% | 1009.1 hPa | 0 mm | 0.89 m/s, 289° | 0 W/m² | - |
| 1788123273 | 27.78° C | 84% | 1009.2 hPa | 0 mm | 0.89 m/s, 245° | 0 W/m² | - |
| 1788123212 | 27.78° C | 84% | 1009.3 hPa | 0 mm | 2.24 m/s, 226° | 0 W/m² | - |
| 1788123151 | 27.78° C | 84% | 1009.3 hPa | 0 mm | 0.89 m/s, 262° | 0 W/m² | - |
| 1788123090 | 27.78° C | 84% | 1009.2 hPa | 0 mm | 1.79 m/s, 220° | 0 W/m² | - |
| 1788123029 | 27.78° C | 84% | 1009.2 hPa | 0 mm | 1.79 m/s, 322° | 0 W/m² | - |
| 1788122968 | 27.78° C | 84% | 1009.3 hPa | 0 mm | 1.34 m/s, 140° | 0 W/m² | - |
| 1788122907 | 27.78° C | 84% | 1009.3 hPa | 0 mm | 0.89 m/s, 255° | 0 W/m² | - |
* Rain latest hour (hover to see other rain measurements)
** Current wind speed in m/s (hover to see current wind gust speed)